Weather in Semidvorie

Russia / Republic of Crimea     44°42′58″N   34°27′53″E
temp.,
°C
wind,
m/s
gust,
m/s
humid.,
%
clouds,
%
prec.,
mm/h
press.,
hPa
HPBL,
m
22 january, fri
fri2200:00+4sw358888 0.0 1026349
03:00+5ssw468975 0.0 1026403
06:00+5ssw458865 0.0 1025397
09:00+5ssw468763 0.0 1025433
12:00+6ssw578844 0.0 1025492
15:00+6ssw468762 0.0 1023323
18:00+5ssw358866 0.0 1023215
21:00+5s239074 0.0 1022156
23 january, sat
sat2300:00+5s349388 0.1 1022238
03:00+5sse129281 0.1 102182
06:00+5sse2292100 0.0 102074
09:00+5s229196 0.0 102080
12:00+6s238994 0.0 1020103
15:00+7ssw129189 0.0 101864
18:00+5se019035 0.0 101822
21:00+5ne128960 0.0 101832
24 january, sun
sun2400:00+5ene228990 0.0 101744
03:00+5e228778 0.0 1016126
06:00+5ene2283100 0.0 1015158
09:00+5ene1288100 0.0 1014184
12:00+5ne1291100 0.0 1014169
15:00+6ene1286100 0.0 1013108
18:00+6nne2287100 0.1 101386
21:00+5nne1189100 0.1 101351
25 january, mon
mon2500:00+5n1291100 1.5 101361
03:00+6ne118696 1.5 101325
06:00+5ne128598 0.0 101230
09:00+6ese018899 0.0 101223
12:00+8se3585100 0.1 1011214
15:00+7ese3489100 0.1 1008148
18:00+6sse3893100 0.5 1006279
21:00+6sse2498100 5.1 1006223
26 january, tue
tue2600:00+7ssw6119083 2.7 1006359
03:00+7ssw459184 2.8 1007120
06:00+7s6109678 0.1 1006319
09:00+7ssw7119789 5.2 1006554
12:00+6w4882100 4.7 1010742
15:00+6w497067 4.7 1012848
18:00+4wnw347671 0.0 1014279
21:00+3nw337485 0.0 1015179